• In Slovakia
  • List of Countries
  • For 7 days
  • Water Temperature
  • Satellite Maps
  • Weather Map
  • Weather Widgets
  • user-avatar
    Login

    Hourly Weather Townsville

    Today, 20 February, Tuesday

    Time Temperature Precipitation Wind Pressure Humidity
    00:00 +28°C° 0 mm 3 mps 748 mmHg 85%
    01:00 +28°C° 0 mm 3 mps 748 mmHg 85%
    02:00 +28°C° 0 mm 3 mps 748 mmHg 85%
    03:00 +28°C° 0 mm 3 mps 748 mmHg 85%
    04:00 +27°C° 0 mm 3 mps 748 mmHg 91%
    05:00 +28°C° 0 mm 3 mps 748 mmHg 90%
    06:00 +28°C° 0 mm 3 mps 748 mmHg 90%
    07:00 +28°C° 0 mm 3 mps 749 mmHg 89%
    08:00 +30°C° 0 mm 3 mps 749 mmHg 78%
    09:00 +33°C° 0 mm 3 mps 749 mmHg 68%
    10:00 +35°C° 0 mm 3 mps 749 mmHg 61%
    11:00 +36°C° 0 mm 3 mps 748 mmHg 56%
    12:00 +38°C° 0 mm 3 mps 748 mmHg 50%
    13:00 +40°C° 0 mm 3 mps 747 mmHg 45%
    14:00 +38°C° 0 mm 4 mps 747 mmHg 49%
    15:00 +37°C° 0 mm 4 mps 746 mmHg 53%
    16:00 +36°C° 0 mm 5 mps 745 mmHg 58%
    17:00 +34°C° 0 mm 5 mps 746 mmHg 65%
    18:00 +32°C° 0 mm 5 mps 746 mmHg 73%
    19:00 +30°C° 0 mm 5 mps 746 mmHg 80%
    20:00 +29°C° 0.6 mm 5 mps 746 mmHg 82%
    21:00 +29°C° 0.6 mm 5 mps 746 mmHg 85%
    22:00 +29°C° 0.6 mm 5 mps 747 mmHg 87%
    23:00 +28°C° 1.8 mm 5 mps 747 mmHg 88%

    Tomorrow, 21 February, Wednesday

    Time Temperature Precipitation Wind Pressure Humidity
    00:00 +28°C° 1.8 mm 5 mps 747 mmHg 88%
    01:00 +28°C° 1.8 mm 5 mps 747 mmHg 88%
    02:00 +28°C° 0.3 mm 4 mps 746 mmHg 90%
    03:00 +27°C° 0.3 mm 3 mps 746 mmHg 91%
    04:00 +27°C° 0.3 mm 3 mps 746 mmHg 93%
    05:00 +27°C° 0.1 mm 3 mps 746 mmHg 92%
    06:00 +27°C° 0.1 mm 3 mps 746 mmHg 91%
    07:00 +28°C° 0.1 mm 2 mps 746 mmHg 90%
    08:00 +29°C° 0.6 mm 3 mps 746 mmHg 83%
    09:00 +32°C° 0.6 mm 4 mps 746 mmHg 76%
    10:00 +33°C° 0.6 mm 5 mps 746 mmHg 69%
    11:00 +34°C° 1.1 mm 5 mps 746 mmHg 68%
    12:00 +34°C° 1.1 mm 5 mps 746 mmHg 66%
    13:00 +35°C° 1.1 mm 5 mps 745 mmHg 65%
    14:00 +34°C° 0.2 mm 6 mps 744 mmHg 66%
    15:00 +34°C° 0.2 mm 7 mps 744 mmHg 67%
    16:00 +33°C° 0.2 mm 8 mps 743 mmHg 68%
    17:00 +30°C° 11.2 mm 7 mps 743 mmHg 77%
    18:00 +28°C° 11.2 mm 7 mps 744 mmHg 85%
    19:00 +26°C° 11.2 mm 6 mps 744 mmHg 94%
    20:00 +27°C° 12.7 mm 6 mps 745 mmHg 94%
    21:00 +27°C° 12.7 mm 5 mps 746 mmHg 95%
    22:00 +27°C° 12.7 mm 5 mps 747 mmHg 95%
    23:00 +27°C° 7 mm 5 mps 747 mmHg 95%

    Day after tomorrow, 22 February, Thursday

    Time Temperature Precipitation Wind Pressure Humidity
    00:00 +26°C° 7 mm 5 mps 747 mmHg 95%
    01:00 +26°C° 7 mm 5 mps 747 mmHg 96%
    02:00 +26°C° 0.4 mm 4 mps 747 mmHg 95%
    03:00 +26°C° 0.4 mm 4 mps 746 mmHg 95%
    04:00 +26°C° 0.4 mm 3 mps 746 mmHg 95%
    05:00 +26°C° 0.3 mm 3 mps 746 mmHg 94%
    06:00 +26°C° 0.3 mm 3 mps 747 mmHg 94%
    07:00 +26°C° 0.3 mm 3 mps 747 mmHg 94%
    08:00 +27°C° 0.5 mm 3 mps 747 mmHg 88%
    09:00 +29°C° 0.5 mm 4 mps 748 mmHg 83%
    10:00 +30°C° 0.5 mm 4 mps 748 mmHg 78%
    11:00 +30°C° 1.6 mm 4 mps 748 mmHg 78%
    12:00 +30°C° 1.6 mm 5 mps 747 mmHg 79%
    13:00 +30°C° 1.6 mm 5 mps 747 mmHg 80%
    14:00 +30°C° 1.7 mm 5 mps 747 mmHg 81%
    15:00 +29°C° 1.7 mm 5 mps 746 mmHg 83%
    16:00 +29°C° 1.7 mm 5 mps 746 mmHg 85%
    17:00 +28°C° 1 mm 5 mps 746 mmHg 87%
    18:00 +27°C° 1 mm 5 mps 747 mmHg 90%
    19:00 +26°C° 1 mm 5 mps 747 mmHg 92%
    20:00 +26°C° 1.4 mm 4 mps 748 mmHg 93%
    21:00 +26°C° 1.4 mm 4 mps 748 mmHg 93%
    22:00 +26°C° 1.4 mm 4 mps 749 mmHg 93%
    23:00 +26°C° 0.5 mm 4 mps 749 mmHg 94%

    23 February, Friday

    Time Temperature Precipitation Wind Pressure Humidity
    00:00 +26°C° 0.5 mm 4 mps 748 mmHg 94%
    01:00 +26°C° 0.5 mm 4 mps 748 mmHg 94%
    02:00 +26°C° 1.4 mm 4 mps 748 mmHg 94%
    03:00 +26°C° 1.4 mm 4 mps 748 mmHg 94%
    04:00 +26°C° 1.4 mm 4 mps 748 mmHg 94%
    05:00 +26°C° 1.2 mm 4 mps 748 mmHg 93%
    06:00 +26°C° 1.2 mm 4 mps 749 mmHg 93%
    07:00 +27°C° 1.2 mm 4 mps 749 mmHg 93%
    08:00 +27°C° 0.9 mm 4 mps 749 mmHg 90%
    09:00 +28°C° 0.9 mm 4 mps 750 mmHg 87%
    10:00 +29°C° 0.9 mm 4 mps 750 mmHg 84%
    11:00 +29°C° 1.9 mm 4 mps 750 mmHg 84%
    12:00 +29°C° 1.9 mm 4 mps 749 mmHg 83%
    13:00 +29°C° 1.9 mm 4 mps 749 mmHg 82%
    14:00 +30°C° 0.6 mm 4 mps 749 mmHg 79%
    15:00 +30°C° 0.6 mm 4 mps 748 mmHg 77%
    16:00 +30°C° 0.6 mm 3 mps 748 mmHg 75%
    17:00 +29°C° 0.8 mm 3 mps 748 mmHg 79%
    18:00 +28°C° 0.8 mm 3 mps 749 mmHg 82%
    19:00 +27°C° 0.8 mm 3 mps 749 mmHg 86%
    20:00 +27°C° 1.4 mm 3 mps 750 mmHg 88%
    21:00 +27°C° 1.4 mm 3 mps 750 mmHg 90%
    22:00 +27°C° 1.4 mm 3 mps 751 mmHg 92%
    23:00 +26°C° 1.3 mm 3 mps 751 mmHg 93%

    24 February, Saturday

    Time Temperature Precipitation Wind Pressure Humidity
    00:00 +26°C° 1.3 mm 3 mps 750 mmHg 93%
    01:00 +26°C° 1.3 mm 3 mps 750 mmHg 94%
    02:00 +26°C° 0.5 mm 2 mps 750 mmHg 95%
    03:00 +26°C° 0.5 mm 2 mps 749 mmHg 96%
    04:00 +26°C° 0.5 mm 1 mps 749 mmHg 96%
    05:00 +26°C° 0.2 mm 1 mps 749 mmHg 97%
    06:00 +26°C° 0.2 mm 2 mps 750 mmHg 97%
    07:00 +26°C° 0.2 mm 2 mps 750 mmHg 97%
    08:00 +27°C° 0 mm 3 mps 750 mmHg 91%
    09:00 +28°C° 0 mm 3 mps 750 mmHg 86%
    10:00 +30°C° 0 mm 4 mps 751 mmHg 81%
    11:00 +30°C° 0.2 mm 4 mps 750 mmHg 77%
    12:00 +32°C° 0.2 mm 4 mps 750 mmHg 72%
    13:00 +33°C° 0.2 mm 4 mps 749 mmHg 68%
    14:00 +32°C° 1 mm 4 mps 749 mmHg 73%
    15:00 +30°C° 1 mm 3 mps 749 mmHg 77%
    16:00 +30°C° 1 mm 3 mps 749 mmHg 82%
    17:00 +29°C° 1.5 mm 2 mps 749 mmHg 86%
    18:00 +28°C° 1.5 mm 2 mps 750 mmHg 90%
    19:00 +27°C° 1.5 mm 1 mps 750 mmHg 93%
    20:00 +27°C° 1.4 mm 1 mps 751 mmHg 94%
    21:00 +27°C° 1.4 mm 2 mps 751 mmHg 94%
    22:00 +27°C° 1.4 mm 2 mps 751 mmHg 94%
    23:00 +26°C° 0.9 mm 2 mps 751 mmHg 94%

    25 February, Sunday

    Time Temperature Precipitation Wind Pressure Humidity
    00:00 +26°C° 0.9 mm 2 mps 751 mmHg 95%
    01:00 +26°C° 0.9 mm 2 mps 750 mmHg 95%
    02:00 +26°C° 0.2 mm 2 mps 750 mmHg 95%
    03:00 +26°C° 0.2 mm 2 mps 750 mmHg 95%
    04:00 +26°C° 0.2 mm 2 mps 749 mmHg 95%
    05:00 +26°C° 0.1 mm 2 mps 750 mmHg 95%
    06:00 +26°C° 0.1 mm 2 mps 750 mmHg 95%
    07:00 +26°C° 0.1 mm 2 mps 750 mmHg 95%
    08:00 +27°C° 0.1 mm 2 mps 750 mmHg 91%
    09:00 +28°C° 0.1 mm 2 mps 750 mmHg 88%
    10:00 +29°C° 0.1 mm 2 mps 751 mmHg 85%
    11:00 +30°C° 0 mm 2 mps 750 mmHg 81%
    12:00 +30°C° 0 mm 3 mps 750 mmHg 77%
    13:00 +31°C° 0 mm 3 mps 749 mmHg 73%
    14:00 +31°C° 0 mm 3 mps 749 mmHg 74%
    15:00 +31°C° 0 mm 3 mps 748 mmHg 75%
    16:00 +30°C° 0 mm 3 mps 748 mmHg 76%
    17:00 +29°C° 0.2 mm 2 mps 749 mmHg 81%
    18:00 +28°C° 0.2 mm 2 mps 749 mmHg 86%
    19:00 +27°C° 0.2 mm 2 mps 750 mmHg 91%
    20:00 +27°C° 0.1 mm 2 mps 750 mmHg 92%
    21:00 +27°C° 0.1 mm 2 mps 750 mmHg 93%
    22:00 +27°C° 0.1 mm 2 mps 751 mmHg 94%
    23:00 +27°C° 0.3 mm 2 mps 750 mmHg 94%
    Show more